Weather History for KHKA - October, 2012

Change the Weather History Date:

Sunday, October 28, 2012

  Actual Average Record
Temperature  
Mean Temperature 46 °F -  
Max Temperature 57 °F 69 °F 85 °F (1940)
Min Temperature 36 °F 45 °F 28 °F (1952)
Degree Days  
Heating Degree Days 20    
Moisture  
Dew Point 34 °F    
Average Humidity 67    
Maximum Humidity 86    
Minimum Humidity 42    
Precipitation  
Precipitation 0.00 in - - ()
Sea Level Pressure  
Sea Level Pressure 30.18 in    
Wind  
Wind Speed 13 mph (North)    
Max Wind Speed 20 mph    
Max Gust Speed 29 mph    
Visibility 10 miles    
Events      
Averages and records for this station are not official NWS values.
T = Trace of Precipitation, MM = Missing Value Source: NWS Daily Summary

Daily Weather History Graph

Daily Weather History Graph

Search for Another Location

Airport or City:

Trip Planner

Search our weather history database for the weather conditions in past years. The results will help you decide how hot, cold, wet, or windy it might be!

Date:

Astronomy

Oct. 28, 2012 Rise Set
Actual Time 7:18 AM CDT 6:07 PM CDT
Civil Twilight 6:52 AM CDT 6:33 PM CDT
Nautical Twilight 6:21 AM CDT 7:03 PM CDT
Astronomical Twilight 5:52 AM CDT 7:33 PM CDT
Moon 5:24 PM CDT (10/28) 6:12 AM CDT (10/28)
Length of Visible Light 11h 41m
Length of Day
10h 48m
Waxing Gibbous, 99% of the Moon is Illuminated
Oct 28
Waxing Gibbous
Oct 29
Full
Nov 6
Last Quarter
Nov 13
New
Nov 20
First Quarter

Hourly Weather History & Observations

Time (CDT) Temp. Windchill Dew Point Humidity Pressure Visibility Wind Dir Wind Speed Gust Speed Precip Events Conditions
12:53 AM 41.0 °F 33.9 °F 35.1 °F 79% 30.17 in 10.0 mi North 12.7 mph - N/A   Clear
1:53 AM 39.9 °F 32.5 °F 34.0 °F 79% 30.15 in 10.0 mi North 12.7 mph - N/A   Clear
2:53 AM 39.0 °F 31.8 °F 33.1 °F 79% 30.15 in 10.0 mi North 11.5 mph - N/A   Clear
3:53 AM 39.0 °F 31.4 °F 33.1 °F 79% 30.14 in 10.0 mi NNE 12.7 mph - N/A   Clear
4:53 AM 37.9 °F 30.5 °F 32.0 °F 79% 30.17 in 10.0 mi North 11.5 mph - N/A   Clear
5:53 AM 37.0 °F 29.3 °F 32.0 °F 82% 30.17 in 10.0 mi North 11.5 mph - N/A   Clear
6:53 AM 36.0 °F 29.0 °F 32.0 °F 86% 30.17 in 10.0 mi North 9.2 mph - N/A   Clear
8:53 AM 41.0 °F 32.5 °F 34.0 °F 76% 30.20 in 10.0 mi North 17.3 mph - N/A   Clear
9:53 AM 45.0 °F 37.6 °F 35.1 °F 68% 30.20 in 10.0 mi North 17.3 mph - N/A   Clear
10:53 AM 50.0 °F - 36.0 °F 59% 30.20 in 10.0 mi North 15.0 mph - N/A   Clear
12:53 PM 54.0 °F - 33.1 °F 45% 30.18 in 10.0 mi NNE 16.1 mph 25.3 mph N/A   Clear
1:53 PM 55.9 °F - 34.0 °F 44% 30.17 in 10.0 mi North 13.8 mph 28.8 mph N/A   Clear
2:53 PM 55.9 °F - 33.1 °F 42% 30.16 in 10.0 mi North 19.6 mph 27.6 mph N/A   Clear
3:53 PM 55.9 °F - 33.1 °F 42% 30.16 in 10.0 mi North 17.3 mph - N/A   Clear
4:53 PM 54.0 °F - 33.1 °F 45% 30.16 in 10.0 mi North 15.0 mph - N/A   Clear
5:53 PM 51.1 °F - 34.0 °F 52% 30.17 in 10.0 mi NNE 11.5 mph - N/A   Clear
6:53 PM 46.9 °F - 34.0 °F 61% 30.19 in 10.0 mi North 9.2 mph - N/A   Clear
7:53 PM 46.0 °F 40.6 °F 34.0 °F 63% 30.19 in 10.0 mi NNE 11.5 mph - N/A   Clear
8:53 PM 42.1 °F 37.1 °F 34.0 °F 73% 30.21 in 10.0 mi North 8.1 mph - N/A   Clear
9:53 PM 39.9 °F 35.1 °F 33.1 °F 77% 30.22 in 10.0 mi North 6.9 mph - N/A   Clear
10:53 PM 37.9 °F 32.1 °F 33.1 °F 83% 30.23 in 10.0 mi North 8.1 mph - N/A   Clear
11:53 PM 37.9 °F 32.1 °F 33.1 °F 83% 30.22 in 10.0 mi North 8.1 mph - N/A   Clear